Regional Weather Roundup
Issued by NWS Bismarck, ND

Home | Current Version | Previous Version | Text Only | Print | Product List | Glossary On
Versions: 1 2 3 4 5 6 7 8 9 10 11 12 13 14 15 16 17 18 19 20 21 22 23 24 25 26 27 28 29 30 31 32 33 34 35 36 37 38 39 40 41 42 43 44 45 46 47 48 49 50
000
ASUS43 KBIS 200759
RWRBIS

NWR BROADCAST TEXT
NATIONAL WEATHER SERVICE BISMARCK ND
300 AM CDT SAT SEP 20 2014

NOTE: "FAIR" INDICATES FEW OR NO CLOUDS BELOW 12,000 FEET WITH NO
SIGNIFICANT WEATHER AND/OR OBSTRUCTIONS TO VISIBILITY.


CITY           SKY/WX    TMP DP  RH WIND       PRES   REMARKS
WILLISTON      CLEAR     50  48  93 SW3       29.86S
MINOT          CLEAR     54  50  86 SW6       29.80S
MINOT AFB      NOT AVBL
BISMARCK       MOCLDY    56  52  86 SW5       29.86R
DICKINSON      NOT AVBL
GARRISON         N/A     55  52  89 W8        29.84R
HETTINGER ARPT PTCLDY    52  45  77 NW8       29.93R
JAMESTOWN      NOT AVBL
CARRINGTON     FAIR      54  54 100 W3        29.81R
HARVEY         FAIR      55  55 100 W7        29.80R
HAZEN          FAIR      50  48  93 SW5       29.87R
LINTON         FAIR      50  50 100 W5        29.85R
MANDAN         CLOUDY    55  52  88 W7        29.87R
OAKES            N/A     57  57 100 NW9       29.78S
RUGBY          FOG       48  48 100 W6        29.79S VSB<1/4
WATFORD CITY   FAIR      48  46  93 SW3       29.85S
$$

CITY           SKY/WX    TMP DP  RH WIND       PRES   REMARKS
GRAND FORKS    CLEAR     51  49  92 N5        29.73S
GRAND FORKS AF NOT AVBL
DEVILS LAKE    CLEAR     55  48  76 W6        29.77R
FARGO          CLEAR     58  54  86 NW9       29.74R
CAVALIER       FAIR      52  50  93 NW6       29.75R
GRAFTON        FAIR      52  52 100 NW7       29.74S
GWINNER        SUNNY     61  59  94 NW8       29.78R
LANGDON        FAIR      45  45 100 W7        29.77R
ROLLA          FAIR      52  52 100 W7        29.78F
$$

CITY           SKY/WX    TMP DP  RH WIND       PRES   REMARKS
ABERDEEN       CLEAR     58  53  84 NW6       29.81R
MOBRIDGE       CLEAR     57  54  89 NW7       29.84S
RAPID CITY     MOCLDY    65  47  52 NW13      30.01R
GLASGOW        PTCLDY    56  49  77 SW8       29.88S
SIDNEY         CLEAR     50  46  87 CALM      29.89R
WOLF POINT     PTCLDY    53  50  89 CALM      29.87F
MILES CITY     CLEAR     57  45  64 W5        29.97R
BAKER          MOCLDY    54  46  74 W7        29.97R
$$

CITY           SKY/WX    TMP DP  RH WIND       PRES   REMARKS
BILLINGS       CLEAR     59  43  55 SW8       30.08R
GREAT FALLS    PTCLDY    54  42  64 SW12      30.08R
$$




USA.gov is the U.S. government's official web portal to all federal, state and local government web resources and services.